Location: Blue Mountain Vista Observatory
(40.6992°N, 75.9422°W)
Time: 03:51:53
(UTC-05:00)

IDEFIX/ARIANE 42P - Visible Passes

Search period start: 03 March 2015 00:00
Search period end: 13 March 2015 01:00
Orbit: 786 x 803 km, 98.3° (Epoch: 02 March)

Date Brightness Start Highest point End Pass type
(mag) Time Alt. Az. Time Alt. Az. Time Alt. Az.
03 Mar 2.9 18:40:41 10° SE 18:45:38 44° ENE 18:50:38 10° N visible
03 Mar 4.8 20:21:19 10° SW 20:25:29 23° W 20:29:32 10° NW visible
04 Mar 3.8 19:52:04 10° SSW 19:57:02 41° W 20:01:59 10° NNW visible
05 Mar 2.7 19:23:28 10° S 19:28:44 76° WSW 19:34:01 10° NNW visible
06 Mar 2.6 18:55:23 10° SSE 19:00:33 61° ENE 19:05:45 10° N visible
06 Mar 5.3 20:37:19 10° SW 20:40:40 16° W 20:43:48 10° NW visible
07 Mar 3.2 18:27:48 10° SE 18:32:28 34° ENE 18:37:12 10° N visible
07 Mar 4.4 20:07:31 10° SSW 20:12:07 30° W 20:16:40 10° NW visible
08 Mar 3.3 20:38:36 10° S 20:43:44 54° W 20:48:54 10° NNW visible
09 Mar 2.5 20:10:14 10° SSE 20:15:29 84° ENE 20:20:47 10° NNW visible
09 Mar 5.6 21:54:09 10° WSW 21:55:54 11° W 21:57:17 10° WNW visible
10 Mar 2.9 19:42:22 10° SE 19:47:21 46° ENE 19:52:23 10° N visible
10 Mar 4.9 21:23:13 10° SW 21:27:16 21° W 21:31:09 10° NW visible
11 Mar 4.0 20:53:53 10° SSW 20:58:47 38° W 21:03:40 10° NNW visible
12 Mar 2.8 20:25:14 10° S 20:30:28 71° WSW 20:35:44 10° NNW visible
